This is the latest recevied weather packets stored in our database for station/object N8HON. If no packets are shown the sender has not sent any weather packets the latest 10 day(s).
| Time | Temp. | Humidity | Pressure | Rain* | Wind** | Luminosity | Snow |
|---|---|---|---|---|---|---|---|
| 1777496848 | 15.56° C | 99% | 1005.4 hPa | 0 mm | - | 98 W/m² | - |
| 1777496545 | 15.56° C | 99% | 1005.7 hPa | 0 mm | - | 166 W/m² | - |
| 1777496241 | 15.56° C | 99% | 1005.6 hPa | 0 mm | - | 135 W/m² | - |
| 1777495937 | 15.56° C | 99% | 1005.8 hPa | 0 mm | - | 262 W/m² | - |
| 1777495633 | 15° C | 99% | 1005.7 hPa | 0 mm | - | 235 W/m² | - |
| 1777495329 | 15° C | 99% | 1006 hPa | 0 mm | - | 85 W/m² | - |
| 1777495027 | 15° C | 99% | 1005.9 hPa | 0 mm | - | 55 W/m² | - |
| 1777494724 | 15° C | 99% | 1006.2 hPa | 0 mm | - | 46 W/m² | - |
| 1777494421 | 15° C | 99% | 1006.2 hPa | 0 mm | - | 14 W/m² | - |
| 1777494117 | 15° C | 99% | 1006.1 hPa | 1.27 mm | - | 23 W/m² | - |
| 1777493815 | 15.56° C | 99% | 1005.9 hPa | 1.27 mm | - | 60 W/m² | - |
| 1777493513 | 15° C | 99% | 1005.9 hPa | 3.05 mm | - | 194 W/m² | - |
| 1777493209 | 15° C | 99% | 1006 hPa | 1.27 mm | - | 196 W/m² | - |
| 1777492906 | 15° C | 99% | 1006.2 hPa | 1.27 mm | - | 40 W/m² | - |
| 1777492603 | 15° C | 98% | 1006.3 hPa | 1.78 mm | - | 44 W/m² | - |
| 1777492298 | 15° C | 98% | 1006.4 hPa | 1.78 mm | - | 46 W/m² | - |
| 1777491995 | 15° C | 98% | 1006.4 hPa | 1.27 mm | - | 46 W/m² | - |
| 1777491692 | 15° C | 97% | 1006.6 hPa | 3.05 mm | - | 52 W/m² | - |
| 1777491390 | 15° C | 97% | 1006.9 hPa | 3.05 mm | - | 44 W/m² | - |
| 1777491086 | 15.56° C | 96% | 1007 hPa | 1.27 mm | - | 42 W/m² | - |
| 1777490782 | 15.56° C | 95% | 1006.8 hPa | 0 mm | - | 43 W/m² | - |
| 1777490479 | 15.56° C | 95% | 1006.7 hPa | 0 mm | - | 73 W/m² | - |
| 1777490175 | 15.56° C | 96% | 1006.9 hPa | 0 mm | - | 56 W/m² | - |
| 1777489872 | 15.56° C | 96% | 1006.8 hPa | 0 mm | - | 78 W/m² | - |
| 1777489570 | 15.56° C | 96% | 1006.8 hPa | 0 mm | - | 94 W/m² | - |
* Rain latest hour (hover to see other rain measurements)
** Current wind speed in m/s (hover to see current wind gust speed)